Flight Briefing for CPX796

Departure Arrival
Guarulhos International Airport (SBGR)
Click to view FAA NOTAMS
Miami International Airport (KMIA)
Click to view FAA NOTAMS
Departure Time Arrival Time
N/A N/A
Aircraft Distance
B747-400BCF 3554nm
Departure METAR Arrival METAR
SBGR 271100Z 00000KT 9999 FEW007 13/13 Q1021 KMIA 271053Z 07007KT 10SM FEW024 26/20 A3005 RMK AO2 SLP175 T02610200
Suggested Route
UKBE1C UKBEV ASTOB UM417 OBGAT UZ21 VUMPI UL795 URSUS FLIPR6


View recent IFR Routes data
Notes



Charts and Procedures

Charts for SBGR
No chart available
Charts for KMIA
No chart available

Windy.com Weather Map